EHI
0 0 0 0 0 0 0 0 0 0 0 0 0 0 0 0 0 0 0 0 0 0 0 0 0 0 0 0 0 0 0 0 0 0 0 1 3 4
0 0 0 0 0 0 0 0 0 0 0 0 0 0 0 0 0 0 0 0 0 0 0 0 0 0 0 0 0 0 0 0 0 0 0 1 2 2
0 0 0 0 0 0 0 0 0 0 0 0 0 0 0 0 0 0 0 0 0 0 0 0 0 0 0 0 0 0 0 0 0 0 0 1 1 0
0 0 0 0 0 0 0 0 0 0 0 0 0 0 0 0 0 0 0 0 0 0 0 0 0 0 0 0 0 0 0 0 0 0 0 0 0 0
0 0 0 0 0 0 0 0 0 0 0 0 0 0 0 0 0 0 0 0 0 0 0 0 0 0 0 0 0 0 0 0 0 0 0 0 0 0
0 0 0 0 0 0 0 0 0 0 0 0 0 0 0 0 0 0 0 0 0 0 0 0 0 0 0 0 0 0 0 0 0 0 0 0 0 0
0 0 0 0 0 0 0 0 0 0 0 0 0 0 0 0 0 0 0 0 0 0 0 0 0 0 0 0 0 0 0 0 0 0 0 0 0 0
0 0 0 0 0 0 0 0 0 0 0 0 0 0 0 0 0 0 0 0 0 0 0 0 0 0 0 0 0 0 0 0 0 0 0 0 0 0
0 0 0 0 0 0 0 0 0 0 0 0 0 0 0 0 0 0 0 0 0 0 0 0 0 0 0 0 0 0 0 0 0 0 0 0 0 0
0 0 0 0 0 0 0 0 0 0 0 0 0 0 0 0 0 0 0 0 0 0 0 0 0 0 0 0 0 0 0 0 0 0 0 0 0 0
0 0 0 0 0 0 0 0 0 0 0 0 0 0 0 0 0 0 0 0 0 0 0 0 0 0 0 0 0 0 0 0 0 0 0 0 0 0
0 0 0 0 0 0 0 0 0 0 0 0 0 0 0 0 0 0 0 0 0 0 0 0 0 0 0 0 0 0 0 0 0 0 0 0 0 0
0 0 0 0 0 0 0 0 0 0 0 0 0 0 0 0 0 0 0 0 0 0 0 0 0 0 0 0 0 0 0 0 0 0 0 0 0 0
0 0 0 0 0 0 0 0 0 0 0 0 0 0 0 0 0 0 0 0 0 0 0 0 0 0 0 0 0 0 0 0 0 0 0 0 0 0
0 0 0 0 0 0 0 0 0 0 0 0 0 0 0 0 0 0 0 0 0 0 0 0 0 0 0 0 0 0 0 0 0 0 0 0 0 0
0 0 0 0 0 0 0 0 0 0 0 0 0 0 0 0 0 0 0 0 0 0 0 0 0 0 0 0 0 0 0 0 0 0 0 0 0 0
0 0 0 0 0 0 0 0 0 0 0 0 0 0 0 0 0 0 0 0 0 0 0 0 0 0 0 0 0 0 0 0 0 0 0 0 0 0
0 0 0 0 0 0 0 0 0 0 0 0 0 0 0 0 0 0 0 0 0 0 0 0 0 0 0 0 0 0 0 0 0 0 0 0 0 0
0 0 0 0 0 0 0 0 0 0 0 0 0 0 0 0 0 0 0 0 0 0 0 0 0 0 0 0 0 0 0 0 0 0 0 0 0 0
0 0 0 0 0 0 0 0 0 0 0 0 0 0 0 0 0 0 0 0 0 0 0 0 0 0 0 0 0 0 0 0 0 0 0 0 0 0
0 0 0 0 0 0 0 0 0 0 0 0 0 0 0 0 0 0 0 0 0 0 0 0 0 0 0 0 0 0 0 0 0 0 0 0 0 0
0 0 0 0 0 0 0 0 0 0 0 0 0 0 0 0 0 0 0 0 0 0 0 0 0 0 0 0 0 0 0 0 0 0 0 0 0 0
0 0 0 0 0 0 0 0 0 0 0 0 0 0 0 0 0 0 0 0 0 0 0 0 0 0 0 0 0 0 0 0 0 0 0 0 0 0
Wind_Speed
11 11 10 9 9 9 9 9 10 12 12 12 9 9 8 8 11 11 12 15 16 17 17 14 12 9 8 8 8 12 17 21 24 25 26 26 26 25
9 11 10 9 8 8 8 8 8 10 12 11 11 12 12 10 13 13 12 17 18 18 17 15 12 9 7 7 9 11 13 17 22 25 26 25 24 23
13 13 12 12 9 8 8 8 8 9 11 12 11 12 14 13 11 11 11 11 10 15 16 16 13 9 8 8 10 12 14 15 19 22 23 23 22 22
14 14 14 12 14 10 9 10 9 9 10 13 12 11 13 13 12 12 10 9 9 12 15 15 13 10 9 8 10 13 16 16 18 21 21 20 20 20
13 13 14 15 15 12 12 11 10 10 10 11 12 10 9 9 11 10 11 9 9 10 12 13 13 11 9 9 11 14 17 19 20 21 21 20 19 20
12 13 13 14 15 15 12 13 12 12 11 10 10 9 8 9 8 7 7 6 7 7 9 9 10 10 9 10 12 14 18 22 23 23 23 22 20 20
12 12 13 17 20 16 12 13 13 11 10 9 9 9 8 8 7 6 7 7 7 5 5 6 7 6 6 8 11 13 18 22 24 24 23 22 21 20
12 13 14 15 20 19 19 18 16 13 12 10 9 9 10 10 9 8 7 6 4 2 4 5 5 5 4 4 8 13 17 21 23 24 24 23 21 20
11 12 12 13 18 13 15 17 15 16 15 11 11 10 11 11 11 10 8 7 6 6 4 4 5 5 3 3 7 12 16 18 21 23 23 23 22 21
10 12 14 15 16 17 14 13 12 11 12 9 9 10 10 11 10 10 10 10 9 7 5 3 3 4 3 2 5 11 14 16 18 21 23 23 22 21
10 11 13 15 21 23 15 14 14 12 12 15 15 13 14 14 11 7 7 6 4 2 1 2 1 2 2 2 3 8 12 15 17 19 21 22 22 21
9 10 14 18 22 22 15 14 15 14 13 12 11 11 9 9 11 6 6 5 5 3 5 4 1 1 2 1 1 4 7 11 16 18 20 22 24 16
8 9 10 20 21 21 18 13 17 16 12 11 9 8 7 6 7 6 5 5 5 4 5 6 3 1 2 1 0 2 4 6 8 11 17 23 24 18
8 8 10 19 19 18 15 19 21 16 9 9 9 8 8 8 8 9 8 6 7 8 9 7 4 3 1 2 1 1 3 5 6 7 9 18 19 18
7 11 14 16 16 13 17 20 16 11 10 10 10 9 9 9 9 8 8 6 7 7 7 6 5 4 2 1 1 2 3 3 5 7 8 10 10 14
7 9 12 12 11 13 13 12 10 11 11 10 10 10 9 9 8 8 8 7 4 3 3 4 4 3 2 2 1 2 3 3 5 8 8 8 8 10
8 6 6 7 8 9 9 9 10 10 11 10 10 10 10 10 9 9 7 7 5 4 4 3 2 2 5 5 2 4 6 7 7 10 12 11 8 8
9 7 7 7 8 9 9 9 10 10 11 11 10 10 10 10 10 9 8 7 6 5 5 4 2 1 3 7 11 4 6 8 8 10 13 15 11 8
7 7 7 7 7 7 8 8 9 10 10 10 10 11 10 10 10 10 9 8 7 6 5 5 4 1 3 3 7 13 5 9 10 10 11 13 13 10
7 8 7 7 6 6 7 7 8 9 9 10 10 10 10 10 10 10 9 10 8 7 6 5 5 4 3 4 4 7 13 6 11 14 14 15 15 20
8 8 8 7 6 6 6 6 7 7 9 9 10 11 10 10 10 10 9 13 10 7 7 6 5 5 2 5 8 6 10 16 11 12 17 18 17 14
8 8 8 7 6 5 5 5 6 6 8 8 9 9 10 10 10 11 10 9 8 7 7 5 5 4 3 7 10 10 11 14 18 23 20 12 10 12
9 9 8 7 6 5 4 4 5 5 6 7 8 8 9 9 9 9 10 9 8 8 7 6 5 6 7 9 11 12 16 14 12 14 15 21 27 31
Wind_Direction
303 298 290 284 279 276 274 276 284 294 298 302 304 301 301 294 290 286 282 281 284 285 280 274 264 264 275 263 247 222 211 202 194 189 190 194 195 194
321 314 308 304 301 296 292 287 284 286 290 296 300 298 300 292 287 283 278 279 275 273 272 265 254 247 260 262 237 217 205 199 188 183 185 189 190 190
337 334 329 321 320 315 308 304 298 294 293 297 299 301 301 297 290 281 274 266 261 258 260 257 248 236 243 256 237 212 196 194 186 180 181 183 186 185
336 336 335 333 332 327 323 318 313 307 300 300 301 303 303 301 297 287 275 262 255 251 249 250 243 232 233 246 240 212 192 186 183 178 177 180 182 180
333 333 332 332 332 333 330 328 321 315 306 300 302 305 305 308 305 291 277 262 256 247 241 242 237 230 229 239 240 212 191 183 183 179 175 175 178 179
333 331 329 329 330 332 332 332 328 320 313 307 306 311 313 318 311 304 292 280 264 250 235 229 223 226 226 234 234 212 193 186 184 180 175 172 171 174
334 332 329 332 333 335 336 334 331 325 320 317 314 316 323 327 323 313 304 297 269 248 236 219 210 211 215 231 233 209 195 187 182 179 175 169 168 171
336 334 330 332 333 336 335 336 335 329 327 323 317 318 320 321 320 316 313 305 276 301 271 226 203 203 206 217 219 199 190 185 179 175 172 169 168 169
333 334 334 333 337 332 336 337 330 330 330 327 315 316 315 319 317 315 315 309 297 316 300 240 205 201 197 223 210 191 185 181 176 173 171 168 167 168
329 332 333 334 334 344 341 334 329 329 328 322 313 312 312 313 312 307 302 296 281 266 253 248 200 189 175 190 207 192 181 177 173 172 170 168 166 166
326 332 335 335 340 349 345 336 333 334 335 330 326 322 323 322 326 318 312 300 286 282 282 268 210 163 154 177 201 190 178 173 171 170 168 166 162 160
330 335 336 341 346 350 347 341 338 339 336 331 329 328 328 325 333 328 313 303 301 314 356 338 322 133 126 88 188 178 172 168 167 167 166 162 159 161
334 337 338 345 349 350 350 346 345 343 334 331 331 334 337 334 332 326 307 288 290 297 346 345 330 1 92 104 108 164 158 153 159 163 164 162 162 163
334 337 341 347 348 349 351 351 352 348 340 338 339 343 344 341 334 325 311 285 263 269 293 309 310 337 46 110 122 117 124 137 142 149 158 160 158 151
337 338 342 347 347 347 350 354 354 349 347 345 345 345 341 337 333 330 325 307 273 256 265 269 277 306 336 66 110 115 99 98 130 135 142 154 152 147
341 336 341 344 347 349 351 353 353 353 351 346 344 343 343 344 349 347 340 335 323 310 290 295 294 302 343 25 85 111 106 114 120 118 114 112 123 134
344 340 344 346 350 352 352 354 353 354 354 350 350 350 350 352 353 352 348 345 349 348 346 344 350 49 57 40 75 101 112 108 112 115 108 96 79 105
353 349 349 348 349 349 350 351 353 355 352 350 353 355 353 353 353 354 356 356 354 350 347 342 332 349 49 46 27 76 103 106 106 110 114 110 93 78
354 349 347 344 343 344 346 348 350 351 349 351 355 356 354 355 357 358 358 358 356 351 347 344 342 350 97 73 17 15 82 114 110 104 105 109 107 98
350 345 343 340 338 338 341 344 346 348 353 352 356 357 357 357 359 360 360 359 354 353 358 5 6 9 65 99 82 30 27 92 119 113 107 102 97 98
343 340 339 337 333 332 334 337 341 347 353 351 356 357 357 358 360 360 358 359 2 2 5 3 353 1 56 90 90 67 47 48 77 117 125 121 116 113
337 335 333 333 330 327 327 330 336 346 353 355 356 357 358 358 358 359 1 360 1 0 1 1 1 18 57 99 104 97 87 75 64 63 61 80 124 136
331 329 328 328 327 323 318 320 326 341 353 353 354 356 357 359 359 0 1 4 5 7 10 22 40 59 77 99 107 106 100 96 90 79 68 77 91 105